Time,TemperatureF,DewpointF,PressureIn,WindDirection,WindDirectionDegrees,WindSpeedMPH,WindSpeedGustMPH,Humidity,HourlyPrecipIn,Conditions,Clouds,dailyrainin,SoftwareType,DateUTC
2013-12-18 00:02:00,46.7,34.8,30.27,SE,130,0.0,0.0,63,0.00,,SKC,0.00,VWS V14.01,2013-12-18 06:02:00,
2013-12-18 00:07:00,46.1,34.6,30.27,SE,130,0.0,0.0,64,0.00,,SKC,0.00,VWS V14.01,2013-12-18 06:07:00,
2013-12-18 00:12:00,46.1,34.6,30.27,SE,130,0.0,0.0,64,0.00,,SKC,0.00,VWS V14.01,2013-12-18 06:12:00,
2013-12-18 00:17:00,46.1,34.6,30.27,SE,130,0.0,0.0,64,0.00,,SKC,0.00,VWS V14.01,2013-12-18 06:17:00,
2013-12-18 00:22:00,46.5,35.0,30.27,SE,130,0.0,0.0,64,0.00,,SKC,0.00,VWS V14.01,2013-12-18 06:22:00,
2013-12-18 00:27:00,47.0,35.1,30.27,SE,130,0.0,0.0,63,0.00,,SKC,0.00,VWS V14.01,2013-12-18 06:27:00,
2013-12-18 00:32:00,47.3,35.0,30.26,SE,130,0.0,0.0,62,0.00,,SKC,0.00,VWS V14.01,2013-12-18 06:32:00,
2013-12-18 00:37:00,47.4,34.6,30.26,SE,130,0.0,0.0,61,0.00,,SKC,0.00,VWS V14.01,2013-12-18 06:37:00,
2013-12-18 00:42:00,47.4,34.6,30.26,SE,130,0.0,0.0,61,0.00,,SKC,0.00,VWS V14.01,2013-12-18 06:42:00,
2013-12-18 00:47:00,47.4,34.6,30.26,SE,130,0.0,0.0,61,0.00,,SKC,0.00,VWS V14.01,2013-12-18 06:47:00,
2013-12-18 00:52:00,47.2,34.5,30.26,SE,130,0.0,0.0,61,0.00,,SKC,0.00,VWS V14.01,2013-12-18 06:52:00,
2013-12-18 00:57:00,47.1,34.4,30.26,SE,130,0.0,0.0,61,0.00,,SKC,0.00,VWS V14.01,2013-12-18 06:57:00,
2013-12-18 01:02:00,46.7,34.4,30.26,SE,130,0.0,0.0,62,0.00,,SKC,0.00,VWS V14.01,2013-12-18 07:02:00,
2013-12-18 01:07:00,46.5,34.6,30.26,SE,130,0.0,0.0,63,0.00,,SKC,0.00,VWS V14.01,2013-12-18 07:07:00,
2013-12-18 01:12:00,46.2,34.3,30.25,SE,130,0.0,0.0,63,0.00,,SKC,0.00,VWS V14.01,2013-12-18 07:12:00,
2013-12-18 01:17:00,45.6,34.1,30.25,SE,130,0.0,0.0,64,0.00,,SKC,0.00,VWS V14.01,2013-12-18 07:17:00,
2013-12-18 01:22:00,45.4,34.0,30.25,SE,130,0.0,0.0,64,0.00,,SKC,0.00,VWS V14.01,2013-12-18 07:22:00,
2013-12-18 01:27:00,45.0,33.6,30.25,SE,130,0.0,0.0,64,0.00,,SKC,0.00,VWS V14.01,2013-12-18 07:27:00,
2013-12-18 01:32:00,44.8,33.8,30.25,SE,130,0.0,0.0,65,0.00,,SKC,0.00,VWS V14.01,2013-12-18 07:32:00,
2013-12-18 01:37:00,44.8,33.8,30.25,SE,130,0.0,0.0,65,0.00,,SKC,0.00,VWS V14.01,2013-12-18 07:37:00,
2013-12-18 01:42:00,45.0,34.0,30.25,SE,130,0.0,0.0,65,0.00,,SKC,0.00,VWS V14.01,2013-12-18 07:42:00,
2013-12-18 01:47:00,44.5,33.5,30.25,SE,130,0.0,0.0,65,0.00,,SKC,0.00,VWS V14.01,2013-12-18 07:47:00,
2013-12-18 01:52:00,44.6,34.0,30.24,SE,130,0.0,0.0,66,0.00,,SKC,0.00,VWS V14.01,2013-12-18 07:52:00,
2013-12-18 01:57:00,45.0,34.3,30.24,SE,130,0.0,0.0,66,0.00,,SKC,0.00,VWS V14.01,2013-12-18 07:57:00,
2013-12-18 02:02:00,45.2,34.2,30.24,SE,130,0.0,0.0,65,0.00,,SKC,0.00,VWS V14.01,2013-12-18 08:02:00,
2013-12-18 02:07:00,45.1,34.0,30.24,SE,130,0.0,0.0,65,0.00,,SKC,0.00,VWS V14.01,2013-12-18 08:07:00,
2013-12-18 02:12:00,45.3,34.2,30.24,SE,130,0.0,0.0,65,0.00,,SKC,0.00,VWS V14.01,2013-12-18 08:12:00,
2013-12-18 02:17:00,45.6,34.1,30.24,SE,130,0.0,0.0,64,0.00,,SKC,0.00,VWS V14.01,2013-12-18 08:17:00,
2013-12-18 02:22:00,45.9,34.4,30.24,SE,130,0.0,0.0,64,0.00,,SKC,0.00,VWS V14.01,2013-12-18 08:22:00,
2013-12-18 02:27:00,46.2,34.3,30.24,SE,130,0.0,0.0,63,0.00,,SKC,0.00,VWS V14.01,2013-12-18 08:27:00,
2013-12-18 02:32:00,46.3,34.4,30.24,SE,130,0.0,0.0,63,0.00,,SKC,0.00,VWS V14.01,2013-12-18 08:32:00,
2013-12-18 02:37:00,46.3,34.4,30.24,SE,130,0.0,1.0,63,0.00,,SKC,0.00,VWS V14.01,2013-12-18 08:37:00,
2013-12-18 02:42:00,46.3,34.4,30.24,SE,130,0.0,0.0,63,0.00,,SKC,0.00,VWS V14.01,2013-12-18 08:42:00,
2013-12-18 02:47:00,46.5,34.6,30.24,SE,130,0.0,0.0,63,0.00,,SKC,0.00,VWS V14.01,2013-12-18 08:47:00,
2013-12-18 02:52:00,46.5,34.2,30.24,SE,130,0.0,0.0,62,0.00,,SKC,0.00,VWS V14.01,2013-12-18 08:52:00,
2013-12-18 02:57:00,46.5,34.6,30.24,SE,130,0.0,0.0,63,0.00,,SKC,0.00,VWS V14.01,2013-12-18 08:57:00,
2013-12-18 03:02:00,46.5,34.6,30.24,SE,130,0.0,1.0,63,0.00,,SKC,0.00,VWS V14.01,2013-12-18 09:02:00,
2013-12-18 03:07:00,46.4,34.5,30.24,SE,130,1.0,1.0,63,0.00,,SKC,0.00,VWS V14.01,2013-12-18 09:07:00,
2013-12-18 03:12:00,46.3,34.4,30.24,SE,130,0.0,1.0,63,0.00,,SKC,0.00,VWS V14.01,2013-12-18 09:12:00,
2013-12-18 03:17:00,46.2,34.3,30.24,SE,130,0.0,0.0,63,0.00,,SKC,0.00,VWS V14.01,2013-12-18 09:17:00,
2013-12-18 03:22:00,46.2,34.7,30.24,SE,130,0.0,0.0,64,0.00,,SKC,0.00,VWS V14.01,2013-12-18 09:22:00,
2013-12-18 03:27:00,46.1,34.6,30.24,SE,130,0.0,0.0,64,0.00,,SKC,0.00,VWS V14.01,2013-12-18 09:27:00,
2013-12-18 03:32:00,46.2,34.7,30.24,SE,130,0.0,1.0,64,0.00,,SKC,0.00,VWS V14.01,2013-12-18 09:32:00,
2013-12-18 03:37:00,46.2,35.1,30.24,SE,130,1.0,2.0,65,0.00,,SKC,0.00,VWS V14.01,2013-12-18 09:37:00,
2013-12-18 03:42:00,46.1,35.0,30.24,SE,130,0.0,1.0,65,0.00,,SKC,0.00,VWS V14.01,2013-12-18 09:42:00,
2013-12-18 03:47:00,45.9,35.2,30.24,SE,130,0.0,0.0,66,0.00,,SKC,0.00,VWS V14.01,2013-12-18 09:47:00,
2013-12-18 03:52:00,45.8,35.1,30.24,SE,130,0.0,0.0,66,0.00,,SKC,0.00,VWS V14.01,2013-12-18 09:52:00,
2013-12-18 03:57:00,45.7,35.8,30.24,SE,131,0.0,0.0,68,0.00,,SKC,0.00,VWS V14.01,2013-12-18 09:57:00,
2013-12-18 04:02:00,45.6,35.7,30.24,SE,130,0.0,0.0,68,0.00,,SKC,0.00,VWS V14.01,2013-12-18 10:02:00,
2013-12-18 04:07:00,45.4,35.5,30.24,SE,131,0.0,0.0,68,0.00,,SKC,0.00,VWS V14.01,2013-12-18 10:07:00,
2013-12-18 04:12:00,45.0,35.5,30.24,SE,131,0.0,0.0,69,0.00,,SKC,0.00,VWS V14.01,2013-12-18 10:12:00,
2013-12-18 04:17:00,44.8,35.6,30.24,SE,131,0.0,0.0,70,0.00,,SKC,0.00,VWS V14.01,2013-12-18 10:17:00,
2013-12-18 04:22:00,44.5,35.7,30.24,SE,130,0.0,0.0,71,0.00,,SKC,0.00,VWS V14.01,2013-12-18 10:22:00,
2013-12-18 04:27:00,44.3,35.9,30.24,SE,131,0.0,0.0,72,0.00,,SKC,0.00,VWS V14.01,2013-12-18 10:27:00,
2013-12-18 04:32:00,44.3,36.2,30.24,SE,131,0.0,0.0,73,0.00,,SKC,0.00,VWS V14.01,2013-12-18 10:32:00,
2013-12-18 04:37:00,44.3,36.5,30.24,SE,130,0.0,0.0,74,0.00,,SKC,0.00,VWS V14.01,2013-12-18 10:37:00,
2013-12-18 04:42:00,44.3,36.9,30.24,SE,130,0.0,0.0,75,0.00,,SKC,0.00,VWS V14.01,2013-12-18 10:42:00,
2013-12-18 04:47:00,44.2,36.8,30.24,SE,130,0.0,0.0,75,0.00,,SKC,0.00,VWS V14.01,2013-12-18 10:47:00,
2013-12-18 04:52:00,44.0,36.9,30.24,SE,130,0.0,0.0,76,0.00,,SKC,0.00,VWS V14.01,2013-12-18 10:52:00,
2013-12-18 04:57:00,43.8,37.1,30.24,SE,131,0.0,0.0,77,0.00,,SKC,0.00,VWS V14.01,2013-12-18 10:57:00,
2013-12-18 05:02:00,43.6,37.2,30.24,SE,131,0.0,0.0,78,0.00,,SKC,0.00,VWS V14.01,2013-12-18 11:02:00,
2013-12-18 05:07:00,43.5,37.4,30.23,SE,131,0.0,0.0,79,0.00,,SKC,0.00,VWS V14.01,2013-12-18 11:07:00,
2013-12-18 05:12:00,43.4,37.3,30.23,South,178,0.0,0.0,79,0.00,,SKC,0.00,VWS V14.01,2013-12-18 11:12:00,
2013-12-18 05:14:00,43.5,37.8,30.23,South,178,0.0,0.0,80,0.00,,SKC,0.00,VWS V14.01,2013-12-18 11:14:00,
2013-12-18 05:19:00,43.4,37.7,30.23,South,178,0.0,0.0,80,0.00,,SKC,0.00,VWS V14.01,2013-12-18 11:19:00,
2013-12-18 05:24:00,43.3,37.6,30.23,South,178,0.0,0.0,80,0.00,,SKC,0.00,VWS V14.01,2013-12-18 11:24:00,
2013-12-18 05:29:00,43.3,37.9,30.23,South,178,0.0,0.0,81,0.00,,SKC,0.00,VWS V14.01,2013-12-18 11:29:00,
2013-12-18 05:34:00,43.0,37.6,30.23,South,178,0.0,0.0,81,0.00,,SKC,0.00,VWS V14.01,2013-12-18 11:34:00,
2013-12-18 05:39:00,42.5,37.1,30.23,South,178,0.0,0.0,81,0.00,,SKC,0.00,VWS V14.01,2013-12-18 11:39:00,
2013-12-18 05:44:00,41.8,36.1,30.23,South,178,0.0,0.0,80,0.00,,SKC,0.00,VWS V14.01,2013-12-18 11:44:00,
2013-12-18 05:49:00,41.0,35.3,30.23,South,178,0.0,0.0,80,0.00,,SKC,0.00,VWS V14.01,2013-12-18 11:49:00,
2013-12-18 05:54:00,40.9,36.1,30.23,South,178,0.0,0.0,83,0.00,,SKC,0.00,VWS V14.01,2013-12-18 11:54:00,
2013-12-18 05:59:00,41.1,36.3,30.23,South,178,0.0,0.0,83,0.00,,SKC,0.00,VWS V14.01,2013-12-18 11:59:00,
2013-12-18 06:03:00,41.1,36.6,30.23,North,0,0.0,0.0,84,0.00,,SKC,0.00,VWS V14.01,2013-12-18 12:03:00,
2013-12-18 06:04:00,41.1,36.6,30.23,South,178,0.0,0.0,84,0.00,,SKC,0.00,VWS V14.01,2013-12-18 12:04:00,
2013-12-18 06:14:00,41.0,38.0,30.23,North,0,0.0,0.0,89,0.00,,SKC,0.00,VWS V14.01,2013-12-18 12:14:00,
2013-12-18 06:19:00,41.4,37.2,30.23,South,178,0.0,0.0,85,0.00,,SKC,0.00,VWS V14.01,2013-12-18 12:19:00,
2013-12-18 06:24:00,41.4,37.5,30.23,South,178,0.0,0.0,86,0.00,,SKC,0.00,VWS V14.01,2013-12-18 12:24:00,
2013-12-18 06:29:00,41.3,37.4,30.23,South,178,0.0,0.0,86,0.00,,SKC,0.00,VWS V14.01,2013-12-18 12:29:00,
2013-12-18 06:34:00,41.4,37.5,30.23,South,178,0.0,0.0,86,0.00,,SKC,0.00,VWS V14.01,2013-12-18 12:34:00,
2013-12-18 06:39:00,41.6,37.7,30.24,South,178,0.0,1.0,86,0.00,,SKC,0.00,VWS V14.01,2013-12-18 12:39:00,
2013-12-18 06:44:00,42.1,38.5,30.24,South,178,1.0,1.0,87,0.00,,SKC,0.00,VWS V14.01,2013-12-18 12:44:00,
2013-12-18 06:49:00,41.9,38.3,30.24,South,179,0.0,1.0,87,0.00,,SKC,0.00,VWS V14.01,2013-12-18 12:49:00,
2013-12-18 06:54:00,43.3,40.0,30.24,South,180,4.0,4.0,88,0.00,,SKC,0.00,VWS V14.01,2013-12-18 12:54:00,
2013-12-18 06:59:00,44.6,41.3,30.24,South,180,4.0,4.0,88,0.00,,SKC,0.00,VWS V14.01,2013-12-18 12:59:00,
2013-12-18 07:04:00,45.1,41.8,30.23,South,180,0.0,1.0,88,0.00,,SKC,0.00,VWS V14.01,2013-12-18 13:04:00,
2013-12-18 07:09:00,45.3,42.0,30.23,South,180,0.0,0.0,88,0.00,,SKC,0.00,VWS V14.01,2013-12-18 13:09:00,
2013-12-18 07:14:00,45.4,42.1,30.23,South,180,0.0,0.0,88,0.00,,SKC,0.00,VWS V14.01,2013-12-18 13:14:00,
2013-12-18 07:19:00,45.6,42.3,30.23,South,180,0.0,0.0,88,0.00,,SKC,0.00,VWS V14.01,2013-12-18 13:19:00,
2013-12-18 07:24:00,45.8,42.5,30.24,South,180,0.0,0.0,88,0.00,,SKC,0.00,VWS V14.01,2013-12-18 13:24:00,
2013-12-18 07:29:00,46.0,42.7,30.24,South,180,0.0,0.0,88,0.00,,SKC,0.00,VWS V14.01,2013-12-18 13:29:00,
2013-12-18 07:34:00,46.2,43.1,30.24,South,180,2.0,2.0,89,0.00,,SKC,0.00,VWS V14.01,2013-12-18 13:34:00,
2013-12-18 07:39:00,46.5,43.1,30.23,South,185,4.0,4.0,88,0.00,,SKC,0.00,VWS V14.01,2013-12-18 13:39:00,
2013-12-18 07:44:00,46.9,43.5,30.24,SSW,196,5.0,5.0,88,0.00,,SKC,0.00,VWS V14.01,2013-12-18 13:44:00,
2013-12-18 07:49:00,46.9,43.5,30.24,SSW,196,6.0,6.0,88,0.00,,SKC,0.00,VWS V14.01,2013-12-18 13:49:00,
2013-12-18 07:54:00,46.9,43.5,30.24,SSW,196,2.0,3.0,88,0.00,,SKC,0.00,VWS V14.01,2013-12-18 13:54:00,
2013-12-18 07:59:00,47.0,43.6,30.24,SSW,192,3.0,5.0,88,0.00,,SKC,0.00,VWS V14.01,2013-12-18 13:59:00,
2013-12-18 08:04:00,47.0,43.6,30.24,SSW,192,2.0,2.0,88,0.00,,SKC,0.00,VWS V14.01,2013-12-18 14:04:00,
2013-12-18 08:09:00,47.2,43.8,30.24,SSW,196,4.0,4.0,88,0.00,,SKC,0.00,VWS V14.01,2013-12-18 14:09:00,
2013-12-18 08:14:00,47.3,43.9,30.24,SSW,206,3.0,4.0,88,0.00,,SKC,0.00,VWS V14.01,2013-12-18 14:14:00,
2013-12-18 08:19:00,47.4,44.0,30.24,SSW,206,1.0,2.0,88,0.00,,SKC,0.00,VWS V14.01,2013-12-18 14:19:00,
2013-12-18 08:24:00,47.6,44.2,30.24,SSW,207,3.0,5.0,88,0.00,,SKC,0.00,VWS V14.01,2013-12-18 14:24:00,
2013-12-18 08:29:00,47.8,44.4,30.24,SSW,203,3.0,4.0,88,0.00,,SKC,0.00,VWS V14.01,2013-12-18 14:29:00,
2013-12-18 08:34:00,47.9,44.5,30.24,SSW,213,0.0,3.0,88,0.00,,SKC,0.00,VWS V14.01,2013-12-18 14:34:00,
2013-12-18 08:39:00,48.1,44.7,30.25,SSW,213,1.0,2.0,88,0.00,,SKC,0.00,VWS V14.01,2013-12-18 14:39:00,
2013-12-18 08:44:00,48.2,44.8,30.25,SSW,213,2.0,5.0,88,0.00,,SKC,0.00,VWS V14.01,2013-12-18 14:44:00,
2013-12-18 08:49:00,48.3,44.9,30.24,SSW,207,2.0,4.0,88,0.00,,SKC,0.00,VWS V14.01,2013-12-18 14:49:00,
2013-12-18 08:54:00,48.4,45.0,30.24,SSW,202,1.0,3.0,88,0.00,,SKC,0.00,VWS V14.01,2013-12-18 14:54:00,
2013-12-18 08:59:00,48.6,45.2,30.25,SSW,196,3.0,6.0,88,0.00,,SKC,0.00,VWS V14.01,2013-12-18 14:59:00,
2013-12-18 09:04:00,48.7,45.3,30.25,SSW,194,4.0,6.0,88,0.00,,SKC,0.00,VWS V14.01,2013-12-18 15:04:00,
2013-12-18 09:09:00,48.8,45.4,30.25,South,190,6.0,6.0,88,0.00,,SKC,0.00,VWS V14.01,2013-12-18 15:09:00,
2013-12-18 09:14:00,49.0,45.6,30.25,SSW,192,6.0,7.0,88,0.00,,SKC,0.00,VWS V14.01,2013-12-18 15:14:00,
2013-12-18 09:19:00,49.2,45.8,30.25,SSW,205,5.0,8.0,88,0.00,,SKC,0.00,VWS V14.01,2013-12-18 15:19:00,
2013-12-18 09:24:00,49.4,46.0,30.25,SSW,196,6.0,6.0,88,0.00,,SKC,0.00,VWS V14.01,2013-12-18 15:24:00,
2013-12-18 09:29:00,49.6,46.2,30.25,SSW,198,7.0,10.0,88,0.00,,SKC,0.00,VWS V14.01,2013-12-18 15:29:00,
2013-12-18 09:34:00,49.8,46.4,30.25,SSW,196,5.0,5.0,88,0.00,,SKC,0.00,VWS V14.01,2013-12-18 15:34:00,
2013-12-18 09:39:00,50.1,46.7,30.25,SSW,196,9.0,9.0,88,0.00,,SKC,0.00,VWS V14.01,2013-12-18 15:39:00,
2013-12-18 09:44:00,50.4,47.0,30.25,SW,214,5.0,10.0,88,0.00,,SKC,0.00,VWS V14.01,2013-12-18 15:44:00,
2013-12-18 09:49:00,50.6,47.2,30.24,SSW,212,3.0,6.0,88,0.00,,SKC,0.00,VWS V14.01,2013-12-18 15:49:00,
2013-12-18 09:54:00,51.0,47.6,30.24,SSW,200,0.0,4.0,88,0.00,,SKC,0.00,VWS V14.01,2013-12-18 15:54:00,
2013-12-18 09:59:00,51.5,48.1,30.25,SSW,194,6.0,6.0,88,0.00,,SKC,0.00,VWS V14.01,2013-12-18 15:59:00,
2013-12-18 10:04:00,51.9,48.5,30.25,South,191,4.0,4.0,88,0.00,,SKC,0.00,VWS V14.01,2013-12-18 16:04:00,
2013-12-18 10:09:00,52.3,49.2,30.24,SSW,200,4.0,5.0,89,0.00,,SKC,0.00,VWS V14.01,2013-12-18 16:09:00,
2013-12-18 10:14:00,52.8,49.7,30.24,SW,223,5.0,5.0,89,0.00,,SKC,0.00,VWS V14.01,2013-12-18 16:14:00,
2013-12-18 10:19:00,53.1,50.0,30.24,South,190,3.0,9.0,89,0.00,,SKC,0.00,VWS V14.01,2013-12-18 16:19:00,
2013-12-18 10:24:00,53.4,49.9,30.24,SW,219,3.0,9.0,88,0.00,,SKC,0.00,VWS V14.01,2013-12-18 16:24:00,
2013-12-18 10:29:00,53.8,50.3,30.24,SSW,195,6.0,9.0,88,0.00,,SKC,0.00,VWS V14.01,2013-12-18 16:29:00,
2013-12-18 10:34:00,54.1,50.3,30.24,South,178,6.0,10.0,87,0.00,,SKC,0.00,VWS V14.01,2013-12-18 16:34:00,
2013-12-18 10:39:00,54.4,50.3,30.23,SSW,196,4.0,5.0,86,0.00,,SKC,0.00,VWS V14.01,2013-12-18 16:39:00,
2013-12-18 10:44:00,55.7,51.0,30.23,SSW,210,3.0,7.0,84,0.00,,SKC,0.00,VWS V14.01,2013-12-18 16:44:00,
2013-12-18 10:49:00,56.9,51.8,30.23,SSW,198,16.0,16.0,83,0.00,,SKC,0.00,VWS V14.01,2013-12-18 16:49:00,
2013-12-18 10:54:00,57.7,51.2,30.23,SSW,205,9.0,9.0,79,0.00,,SKC,0.00,VWS V14.01,2013-12-18 16:54:00,
2013-12-18 10:59:00,58.1,50.9,30.23,South,190,11.0,13.0,77,0.00,,SKC,0.00,VWS V14.01,2013-12-18 16:59:00,
2013-12-18 11:04:00,58.1,50.6,30.22,SSW,202,11.0,12.0,76,0.00,,SKC,0.00,VWS V14.01,2013-12-18 17:04:00,
2013-12-18 11:09:00,58.2,51.0,30.22,SSW,192,6.0,11.0,77,0.00,,SKC,0.00,VWS V14.01,2013-12-18 17:09:00,
2013-12-18 11:14:00,58.8,51.3,30.22,SSW,213,7.0,9.0,76,0.00,,SKC,0.00,VWS V14.01,2013-12-18 17:14:00,
2013-12-18 11:19:00,59.0,51.1,30.22,South,180,13.0,13.0,75,0.00,,SKC,0.00,VWS V14.01,2013-12-18 17:19:00,
2013-12-18 11:24:00,59.0,51.1,30.22,South,188,11.0,11.0,75,0.00,,SKC,0.00,VWS V14.01,2013-12-18 17:24:00,
2013-12-18 11:29:00,59.3,51.0,30.21,South,172,10.0,10.0,74,0.00,,SKC,0.00,VWS V14.01,2013-12-18 17:29:00,
2013-12-18 11:34:00,59.0,50.4,30.21,SSW,195,8.0,10.0,73,0.00,,SKC,0.00,VWS V14.01,2013-12-18 17:34:00,
2013-12-18 11:39:00,59.6,51.0,30.21,SW,221,4.0,11.0,73,0.00,,SKC,0.00,VWS V14.01,2013-12-18 17:39:00,
2013-12-18 11:44:00,60.0,51.0,30.20,South,186,9.0,11.0,72,0.00,,SKC,0.00,VWS V14.01,2013-12-18 17:44:00,
2013-12-18 11:49:00,60.5,51.8,30.20,SSW,200,4.0,9.0,73,0.00,,SKC,0.00,VWS V14.01,2013-12-18 17:49:00,
2013-12-18 11:54:00,61.1,50.9,30.20,South,189,9.0,12.0,69,0.00,,SKC,0.00,VWS V14.01,2013-12-18 17:54:00,
2013-12-18 11:59:00,60.7,50.9,30.19,South,182,4.0,11.0,70,0.00,,SKC,0.00,VWS V14.01,2013-12-18 17:59:00,
2013-12-18 12:04:00,61.0,51.2,30.19,SSE,161,10.0,12.0,70,0.00,,SKC,0.00,VWS V14.01,2013-12-18 18:04:00,
2013-12-18 12:09:00,61.3,50.7,30.19,SSW,195,7.0,15.0,68,0.00,,SKC,0.00,VWS V14.01,2013-12-18 18:09:00,
2013-12-18 12:14:00,61.4,51.2,30.18,SSW,204,11.0,13.0,69,0.00,,SKC,0.00,VWS V14.01,2013-12-18 18:14:00,
2013-12-18 12:19:00,62.2,50.7,30.18,South,182,7.0,12.0,66,0.00,,SKC,0.00,VWS V14.01,2013-12-18 18:19:00,
2013-12-18 12:24:00,61.8,50.3,30.17,South,186,6.0,11.0,66,0.00,,SKC,0.00,VWS V14.01,2013-12-18 18:24:00,
2013-12-18 12:29:00,61.9,50.4,30.17,SSW,196,9.0,13.0,66,0.00,,SKC,0.00,VWS V14.01,2013-12-18 18:29:00,
2013-12-18 12:34:00,62.0,50.1,30.17,SSW,192,12.0,16.0,65,0.00,,SKC,0.00,VWS V14.01,2013-12-18 18:34:00,
2013-12-18 12:39:00,62.1,50.2,30.16,South,187,10.0,14.0,65,0.00,,SKC,0.00,VWS V14.01,2013-12-18 18:39:00,
2013-12-18 12:44:00,62.1,49.8,30.16,South,173,19.0,22.0,64,0.00,,SKC,0.00,VWS V14.01,2013-12-18 18:44:00,
2013-12-18 12:49:00,62.0,50.1,30.16,South,184,12.0,14.0,65,0.00,,SKC,0.00,VWS V14.01,2013-12-18 18:49:00,
2013-12-18 12:54:00,62.3,49.6,30.15,South,176,14.0,16.0,63,0.00,,SKC,0.00,VWS V14.01,2013-12-18 18:54:00,
2013-12-18 12:59:00,62.4,49.2,30.15,SW,224,7.0,7.0,62,0.00,,SKC,0.00,VWS V14.01,2013-12-18 18:59:00,
2013-12-18 13:04:00,62.7,49.5,30.14,SSW,211,11.0,12.0,62,0.00,,SKC,0.00,VWS V14.01,2013-12-18 19:04:00,
2013-12-18 13:09:00,62.5,48.9,30.14,SSW,202,14.0,17.0,61,0.00,,SKC,0.00,VWS V14.01,2013-12-18 19:09:00,
2013-12-18 13:14:00,62.5,48.9,30.14,SSE,158,12.0,16.0,61,0.00,,SKC,0.00,VWS V14.01,2013-12-18 19:14:00,
2013-12-18 13:19:00,63.0,49.4,30.14,South,191,10.0,13.0,61,0.00,,SKC,0.00,VWS V14.01,2013-12-18 19:19:00,
2013-12-18 13:24:00,63.3,49.2,30.13,SSW,195,13.0,17.0,60,0.00,,SKC,0.00,VWS V14.01,2013-12-18 19:24:00,
2013-12-18 13:29:00,63.2,48.7,30.13,South,184,11.0,15.0,59,0.00,,SKC,0.00,VWS V14.01,2013-12-18 19:29:00,
2013-12-18 13:34:00,63.4,48.8,30.13,SW,217,7.0,13.0,59,0.00,,SKC,0.00,VWS V14.01,2013-12-18 19:34:00,
2013-12-18 13:39:00,63.1,48.6,30.13,SSE,163,8.0,11.0,59,0.00,,SKC,0.00,VWS V14.01,2013-12-18 19:39:00,
2013-12-18 13:44:00,63.5,48.5,30.12,South,186,14.0,16.0,58,0.00,,SKC,0.00,VWS V14.01,2013-12-18 19:44:00,
2013-12-18 13:49:00,63.2,48.2,30.12,SW,217,12.0,13.0,58,0.00,,SKC,0.00,VWS V14.01,2013-12-18 19:49:00,
2013-12-18 13:54:00,63.7,48.7,30.12,South,180,11.0,13.0,58,0.00,,SKC,0.00,VWS V14.01,2013-12-18 19:54:00,
2013-12-18 13:59:00,64.0,48.5,30.11,South,188,14.0,15.0,57,0.00,,SKC,0.00,VWS V14.01,2013-12-18 19:59:00,
2013-12-18 14:04:00,63.4,47.9,30.11,SE,136,10.0,13.0,57,0.00,,SKC,0.00,VWS V14.01,2013-12-18 20:04:00,
2013-12-18 14:09:00,63.9,48.8,30.11,South,169,7.0,18.0,58,0.00,,SKC,0.00,VWS V14.01,2013-12-18 20:09:00,
2013-12-18 14:14:00,64.1,48.1,30.10,SSW,206,9.0,13.0,56,0.00,,SKC,0.00,VWS V14.01,2013-12-18 20:14:00,
2013-12-18 14:19:00,64.0,48.9,30.10,SSE,167,4.0,11.0,58,0.00,,SKC,0.00,VWS V14.01,2013-12-18 20:19:00,
2013-12-18 14:24:00,64.5,49.0,30.10,SSW,204,10.0,14.0,57,0.00,,SKC,0.00,VWS V14.01,2013-12-18 20:24:00,
2013-12-18 14:29:00,64.5,48.5,30.09,SSW,198,14.0,15.0,56,0.00,,SKC,0.00,VWS V14.01,2013-12-18 20:29:00,
2013-12-18 14:34:00,64.6,48.6,30.09,South,182,13.0,16.0,56,0.00,,SKC,0.00,VWS V14.01,2013-12-18 20:34:00,
2013-12-18 14:39:00,64.3,48.3,30.09,SSW,200,11.0,11.0,56,0.00,,SKC,0.00,VWS V14.01,2013-12-18 20:39:00,
2013-12-18 14:44:00,64.4,47.4,30.09,SE,146,11.0,15.0,54,0.00,,SKC,0.00,VWS V14.01,2013-12-18 20:44:00,
2013-12-18 14:49:00,64.5,47.5,30.08,South,191,19.0,19.0,54,0.00,,SKC,0.00,VWS V14.01,2013-12-18 20:49:00,
2013-12-18 14:54:00,64.5,47.0,30.08,SSW,203,13.0,17.0,53,0.00,,SKC,0.00,VWS V14.01,2013-12-18 20:54:00,
2013-12-18 14:59:00,64.3,47.3,30.08,SSW,211,10.0,17.0,54,0.00,,SKC,0.00,VWS V14.01,2013-12-18 20:59:00,
2013-12-18 15:04:00,64.5,48.0,30.08,SSW,210,14.0,14.0,55,0.00,,SKC,0.00,VWS V14.01,2013-12-18 21:04:00,
2013-12-18 15:09:00,64.3,47.3,30.08,South,186,7.0,16.0,54,0.00,,SKC,0.00,VWS V14.01,2013-12-18 21:09:00,
2013-12-18 15:14:00,64.7,47.7,30.08,South,182,11.0,14.0,54,0.00,,SKC,0.00,VWS V14.01,2013-12-18 21:14:00,
2013-12-18 15:19:00,64.6,48.1,30.08,SSW,202,6.0,10.0,55,0.00,,SKC,0.00,VWS V14.01,2013-12-18 21:19:00,
2013-12-18 15:24:00,64.1,47.6,30.08,South,176,9.0,15.0,55,0.00,,SKC,0.00,VWS V14.01,2013-12-18 21:24:00,
2013-12-18 15:29:00,64.2,47.7,30.08,South,186,11.0,13.0,55,0.00,,SKC,0.00,VWS V14.01,2013-12-18 21:29:00,
2013-12-18 15:34:00,64.1,47.6,30.08,South,183,17.0,19.0,55,0.00,,SKC,0.00,VWS V14.01,2013-12-18 21:34:00,
2013-12-18 15:39:00,63.7,47.7,30.07,SSW,200,11.0,15.0,56,0.00,,SKC,0.00,VWS V14.01,2013-12-18 21:39:00,
2013-12-18 15:44:00,63.6,47.6,30.07,SSW,207,13.0,15.0,56,0.00,,SKC,0.00,VWS V14.01,2013-12-18 21:44:00,
2013-12-18 15:49:00,63.6,47.6,30.07,SSW,194,10.0,10.0,56,0.00,,SKC,0.00,VWS V14.01,2013-12-18 21:49:00,
2013-12-18 15:54:00,63.7,47.2,30.07,SSW,200,12.0,14.0,55,0.00,,SKC,0.00,VWS V14.01,2013-12-18 21:54:00,
2013-12-18 15:59:00,63.8,47.8,30.07,SSE,161,4.0,8.0,56,0.00,,SKC,0.00,VWS V14.01,2013-12-18 21:59:00,
2013-12-18 16:04:00,63.7,46.8,30.07,South,176,10.0,15.0,54,0.00,,SKC,0.00,VWS V14.01,2013-12-18 22:04:00,
2013-12-18 16:09:00,63.6,47.2,30.07,SSW,199,14.0,14.0,55,0.00,,SKC,0.00,VWS V14.01,2013-12-18 22:09:00,
2013-12-18 16:14:00,63.4,47.0,30.06,SSW,194,11.0,15.0,55,0.00,,SKC,0.00,VWS V14.01,2013-12-18 22:14:00,
2013-12-18 16:19:00,63.2,46.8,30.06,SSW,202,13.0,15.0,55,0.00,,SKC,0.00,VWS V14.01,2013-12-18 22:19:00,
2013-12-18 16:24:00,63.3,46.9,30.06,South,186,15.0,15.0,55,0.00,,SKC,0.00,VWS V14.01,2013-12-18 22:24:00,
2013-12-18 16:29:00,63.0,47.1,30.06,SSW,204,18.0,18.0,56,0.00,,SKC,0.00,VWS V14.01,2013-12-18 22:29:00,
2013-12-18 16:34:00,62.8,47.4,30.06,South,186,5.0,13.0,57,0.00,,SKC,0.00,VWS V14.01,2013-12-18 22:34:00,
2013-12-18 16:39:00,62.9,47.0,30.06,SSE,150,10.0,18.0,56,0.00,,SKC,0.00,VWS V14.01,2013-12-18 22:39:00,
2013-12-18 16:44:00,62.6,46.7,30.06,SSE,160,16.0,16.0,56,0.00,,SKC,0.00,VWS V14.01,2013-12-18 22:44:00,
2013-12-18 16:49:00,62.5,47.1,30.07,SSW,195,12.0,12.0,57,0.00,,SKC,0.00,VWS V14.01,2013-12-18 22:49:00,
2013-12-18 16:54:00,62.3,46.9,30.06,SSE,167,5.0,20.0,57,0.00,,SKC,0.00,VWS V14.01,2013-12-18 22:54:00,
2013-12-18 16:59:00,62.1,46.7,30.06,SSW,192,11.0,11.0,57,0.00,,SKC,0.00,VWS V14.01,2013-12-18 22:59:00,
2013-12-18 17:04:00,61.9,47.0,30.06,South,175,10.0,10.0,58,0.00,,SKC,0.00,VWS V14.01,2013-12-18 23:04:00,
2013-12-18 17:09:00,61.6,47.2,30.06,South,175,6.0,9.0,59,0.00,,SKC,0.00,VWS V14.01,2013-12-18 23:09:00,
2013-12-18 17:14:00,61.3,47.3,30.06,South,191,8.0,12.0,60,0.00,,SKC,0.00,VWS V14.01,2013-12-18 23:14:00,
2013-12-18 17:19:00,60.9,46.9,30.06,South,176,6.0,10.0,60,0.00,,SKC,0.00,VWS V14.01,2013-12-18 23:19:00,
2013-12-18 17:24:00,60.5,47.0,30.06,South,187,12.0,12.0,61,0.00,,SKC,0.00,VWS V14.01,2013-12-18 23:24:00,
2013-12-18 17:29:00,60.3,46.8,30.06,SSE,161,5.0,13.0,61,0.00,,SKC,0.00,VWS V14.01,2013-12-18 23:29:00,
2013-12-18 17:35:00,59.9,46.4,30.06,South,176,6.0,12.0,61,0.00,,SKC,0.00,VWS V14.01,2013-12-18 23:35:00,
2013-12-18 17:40:00,59.7,46.7,30.06,South,188,7.0,10.0,62,0.00,,SKC,0.00,VWS V14.01,2013-12-18 23:40:00,
2013-12-18 17:45:00,59.4,46.4,30.06,South,187,11.0,11.0,62,0.00,,SKC,0.00,VWS V14.01,2013-12-18 23:45:00,
2013-12-18 17:50:00,59.0,46.0,30.05,South,180,9.0,11.0,62,0.00,,SKC,0.00,VWS V14.01,2013-12-18 23:50:00,
2013-12-18 17:55:00,59.0,46.4,30.05,South,186,7.0,7.0,63,0.00,,SKC,0.00,VWS V14.01,2013-12-18 23:55:00,
2013-12-18 18:00:00,58.8,46.2,30.05,South,180,4.0,8.0,63,0.00,,SKC,0.00,VWS V14.01,2013-12-19 00:00:00,
2013-12-18 18:05:00,58.4,46.3,30.05,South,185,10.0,10.0,64,0.00,,SKC,0.00,VWS V14.01,2013-12-19 00:05:00,
2013-12-18 18:10:00,58.1,46.0,30.05,South,169,5.0,9.0,64,0.00,,SKC,0.00,VWS V14.01,2013-12-19 00:10:00,
2013-12-18 18:15:00,58.0,46.3,30.05,South,171,5.0,9.0,65,0.00,,SKC,0.00,VWS V14.01,2013-12-19 00:15:00,
2013-12-18 18:20:00,57.8,46.1,30.05,South,180,6.0,7.0,65,0.00,,SKC,0.00,VWS V14.01,2013-12-19 00:20:00,
2013-12-18 18:25:00,57.5,45.8,30.05,South,173,1.0,9.0,65,0.00,,SKC,0.00,VWS V14.01,2013-12-19 00:25:00,
2013-12-18 18:30:00,57.1,45.9,30.05,South,171,5.0,6.0,66,0.00,,SKC,0.00,VWS V14.01,2013-12-19 00:30:00,
2013-12-18 18:35:00,56.8,46.0,30.05,South,175,5.0,7.0,67,0.00,,SKC,0.00,VWS V14.01,2013-12-19 00:35:00,
2013-12-18 18:40:00,56.5,45.7,30.05,SSE,168,3.0,4.0,67,0.00,,SKC,0.00,VWS V14.01,2013-12-19 00:40:00,
2013-12-18 18:45:00,56.2,45.4,30.05,SSE,165,3.0,4.0,67,0.00,,SKC,0.00,VWS V14.01,2013-12-19 00:45:00,
2013-12-18 18:50:00,55.8,45.4,30.05,South,170,3.0,5.0,68,0.00,,SKC,0.00,VWS V14.01,2013-12-19 00:50:00,
2013-12-18 18:55:00,55.5,45.5,30.05,South,169,3.0,4.0,69,0.00,,SKC,0.00,VWS V14.01,2013-12-19 00:55:00,
2013-12-18 19:00:00,55.4,45.4,30.05,SSE,164,3.0,5.0,69,0.00,,SKC,0.00,VWS V14.01,2013-12-19 01:00:00,
2013-12-18 19:05:00,55.1,45.1,30.05,SSE,167,3.0,3.0,69,0.00,,SKC,0.00,VWS V14.01,2013-12-19 01:05:00,
2013-12-18 19:10:00,54.8,45.2,30.05,SSE,167,3.0,3.0,70,0.00,,SKC,0.00,VWS V14.01,2013-12-19 01:10:00,
2013-12-18 19:15:00,54.5,45.3,30.05,SSE,167,2.0,4.0,71,0.00,,SKC,0.00,VWS V14.01,2013-12-19 01:15:00,
2013-12-18 19:20:00,54.4,45.2,30.05,SSE,167,2.0,2.0,71,0.00,,SKC,0.00,VWS V14.01,2013-12-19 01:20:00,
2013-12-18 19:25:00,54.2,45.0,30.05,SSE,167,2.0,2.0,71,0.00,,SKC,0.00,VWS V14.01,2013-12-19 01:25:00,
2013-12-18 19:30:00,54.0,45.2,30.05,SSE,167,2.0,3.0,72,0.00,,SKC,0.00,VWS V14.01,2013-12-19 01:30:00,
2013-12-18 19:35:00,53.8,45.0,30.05,SSE,167,3.0,4.0,72,0.00,,SKC,0.00,VWS V14.01,2013-12-19 01:35:00,
2013-12-18 19:40:00,53.7,45.3,30.06,SSE,167,3.0,3.0,73,0.00,,SKC,0.00,VWS V14.01,2013-12-19 01:40:00,
2013-12-18 19:45:00,53.6,45.2,30.05,SSE,167,2.0,4.0,73,0.00,,SKC,0.00,VWS V14.01,2013-12-19 01:45:00,
2013-12-18 19:50:00,53.5,45.4,30.05,SSE,165,3.0,4.0,74,0.00,,SKC,0.00,VWS V14.01,2013-12-19 01:50:00,
2013-12-18 19:55:00,53.4,45.3,30.05,SSE,165,4.0,5.0,74,0.00,,SKC,0.00,VWS V14.01,2013-12-19 01:55:00,
2013-12-18 20:00:00,53.2,45.1,30.05,SSE,168,3.0,4.0,74,0.00,,SKC,0.00,VWS V14.01,2013-12-19 02:00:00,
2013-12-18 20:05:00,53.0,45.3,30.05,SSE,167,3.0,4.0,75,0.00,,SKC,0.00,VWS V14.01,2013-12-19 02:05:00,
2013-12-18 20:10:00,52.8,45.1,30.05,South,170,4.0,5.0,75,0.00,,SKC,0.00,VWS V14.01,2013-12-19 02:10:00,
2013-12-18 20:15:00,52.6,44.9,30.05,South,173,3.0,4.0,75,0.00,,SKC,0.00,VWS V14.01,2013-12-19 02:15:00,
2013-12-18 20:20:00,52.5,45.2,30.05,SSE,157,4.0,5.0,76,0.00,,SKC,0.00,VWS V14.01,2013-12-19 02:20:00,
2013-12-18 20:25:00,52.4,45.1,30.05,SSE,163,3.0,5.0,76,0.00,,SKC,0.00,VWS V14.01,2013-12-19 02:25:00,
2013-12-18 20:30:00,52.3,45.3,30.05,SSE,167,3.0,6.0,77,0.00,,SKC,0.00,VWS V14.01,2013-12-19 02:30:00,
2013-12-18 20:35:00,52.4,45.4,30.05,SSE,163,5.0,5.0,77,0.00,,SKC,0.00,VWS V14.01,2013-12-19 02:35:00,
2013-12-18 20:40:00,52.4,45.4,30.05,South,173,4.0,5.0,77,0.00,,SKC,0.00,VWS V14.01,2013-12-19 02:40:00,
2013-12-18 20:45:00,52.6,46.0,30.05,South,175,5.0,7.0,78,0.00,,SKC,0.00,VWS V14.01,2013-12-19 02:45:00,
2013-12-18 20:50:00,52.8,45.8,30.05,SSE,167,5.0,10.0,77,0.00,,SKC,0.00,VWS V14.01,2013-12-19 02:50:00,
2013-12-18 20:55:00,53.0,46.0,30.05,South,170,5.0,7.0,77,0.00,,SKC,0.00,VWS V14.01,2013-12-19 02:55:00,
2013-12-18 21:00:00,53.2,46.2,30.05,South,184,8.0,11.0,77,0.00,,SKC,0.00,VWS V14.01,2013-12-19 03:00:00,
2013-12-18 21:05:00,53.4,46.4,30.04,South,176,5.0,11.0,77,0.00,,SKC,0.00,VWS V14.01,2013-12-19 03:05:00,
2013-12-18 21:10:00,53.5,46.5,30.04,South,183,10.0,10.0,77,0.00,,SKC,0.00,VWS V14.01,2013-12-19 03:10:00,
2013-12-18 21:15:00,53.6,46.6,30.04,South,171,8.0,10.0,77,0.00,,SKC,0.00,VWS V14.01,2013-12-19 03:15:00,
2013-12-18 21:20:00,53.7,46.7,30.04,South,177,5.0,11.0,77,0.00,,SKC,0.00,VWS V14.01,2013-12-19 03:20:00,
2013-12-18 21:25:00,53.7,46.7,30.04,SSE,168,7.0,12.0,77,0.00,,SKC,0.00,VWS V14.01,2013-12-19 03:25:00,
2013-12-18 21:30:00,54.0,47.0,30.04,South,180,9.0,15.0,77,0.00,,SKC,0.00,VWS V14.01,2013-12-19 03:30:00,
2013-12-18 21:35:00,54.2,46.8,30.04,SSE,153,6.0,12.0,76,0.00,,SKC,0.00,VWS V14.01,2013-12-19 03:35:00,
2013-12-18 21:40:00,54.4,47.0,30.04,South,184,6.0,13.0,76,0.00,,SKC,0.00,VWS V14.01,2013-12-19 03:40:00,
2013-12-18 21:45:00,54.4,47.0,30.04,South,184,11.0,12.0,76,0.00,,SKC,0.00,VWS V14.01,2013-12-19 03:45:00,
2013-12-18 21:50:00,54.5,47.1,30.04,South,182,7.0,12.0,76,0.00,,SKC,0.00,VWS V14.01,2013-12-19 03:50:00,
2013-12-18 21:55:00,54.4,47.0,30.04,SSW,199,7.0,12.0,76,0.00,,SKC,0.00,VWS V14.01,2013-12-19 03:55:00,
2013-12-18 22:00:00,54.4,47.3,30.04,SSE,167,9.0,15.0,77,0.00,,SKC,0.00,VWS V14.01,2013-12-19 04:00:00,
2013-12-18 22:05:00,54.3,47.2,30.04,South,172,11.0,11.0,77,0.00,,SKC,0.00,VWS V14.01,2013-12-19 04:05:00,
2013-12-18 22:10:00,54.4,47.3,30.04,South,176,11.0,15.0,77,0.00,,SKC,0.00,VWS V14.01,2013-12-19 04:10:00,
2013-12-18 22:15:00,54.4,47.3,30.04,South,185,8.0,13.0,77,0.00,,SKC,0.00,VWS V14.01,2013-12-19 04:15:00,
2013-12-18 22:20:00,54.2,47.5,30.04,SSE,165,5.0,11.0,78,0.00,,SKC,0.00,VWS V14.01,2013-12-19 04:20:00,
2013-12-18 22:25:00,54.1,47.4,30.04,SSE,163,11.0,11.0,78,0.00,,SKC,0.00,VWS V14.01,2013-12-19 04:25:00,
2013-12-18 22:30:00,54.0,47.3,30.04,South,184,11.0,19.0,78,0.00,,SKC,0.00,VWS V14.01,2013-12-19 04:30:00,
2013-12-18 22:35:00,53.9,47.5,30.04,South,180,8.0,16.0,79,0.00,,SKC,0.00,VWS V14.01,2013-12-19 04:35:00,
2013-12-18 22:40:00,53.9,47.9,30.04,SSW,192,10.0,12.0,80,0.00,,SKC,0.00,VWS V14.01,2013-12-19 04:40:00,
2013-12-18 22:45:00,53.8,47.8,30.04,South,186,9.0,13.0,80,0.00,,SKC,0.00,VWS V14.01,2013-12-19 04:45:00,
2013-12-18 22:50:00,53.9,48.2,30.03,SSE,165,9.0,16.0,81,0.00,,SKC,0.00,VWS V14.01,2013-12-19 04:50:00,
2013-12-18 22:55:00,54.0,48.3,30.03,SSE,167,11.0,11.0,81,0.00,,SKC,0.00,VWS V14.01,2013-12-19 04:55:00,
2013-12-18 23:00:00,54.1,48.7,30.03,South,182,13.0,13.0,82,0.00,,SKC,0.00,VWS V14.01,2013-12-19 05:00:00,
2013-12-18 23:01:00,54.2,48.8,30.03,South,180,14.0,19.0,82,0.00,,SKC,0.00,VWS V14.01,2013-12-19 05:01:00,
2013-12-18 23:06:00,54.3,49.3,30.03,SSE,158,12.0,12.0,83,0.00,,SKC,0.00,VWS V14.01,2013-12-19 05:06:00,
2013-12-18 23:11:00,54.3,49.3,30.03,South,171,7.0,9.0,83,0.00,,SKC,0.00,VWS V14.01,2013-12-19 05:11:00,
2013-12-18 23:16:00,54.3,49.3,30.03,SSW,195,14.0,14.0,83,0.00,,SKC,0.00,VWS V14.01,2013-12-19 05:16:00,
2013-12-18 23:21:00,54.5,49.8,30.03,South,184,14.0,14.0,84,0.00,,SKC,0.00,VWS V14.01,2013-12-19 05:21:00,
2013-12-18 23:26:00,54.5,49.8,30.03,SSW,194,6.0,11.0,84,0.00,,SKC,0.00,VWS V14.01,2013-12-19 05:26:00,
2013-12-18 23:31:00,54.6,49.9,30.02,South,178,10.0,13.0,84,0.00,,SKC,0.00,VWS V14.01,2013-12-19 05:31:00,
2013-12-18 23:36:00,54.6,49.9,30.02,South,180,13.0,16.0,84,0.00,,SKC,0.00,VWS V14.01,2013-12-19 05:36:00,
2013-12-18 23:41:00,54.7,50.0,30.02,South,178,9.0,14.0,84,0.00,,SKC,0.00,VWS V14.01,2013-12-19 05:41:00,
2013-12-18 23:46:00,54.7,50.3,30.02,South,175,6.0,10.0,85,0.00,,SKC,0.00,VWS V14.01,2013-12-19 05:46:00,
2013-12-18 23:51:00,54.7,50.3,30.01,SSW,192,7.0,16.0,85,0.00,,SKC,0.00,VWS V14.01,2013-12-19 05:51:00,
2013-12-18 23:56:00,54.8,50.4,30.01,South,187,15.0,15.0,85,0.00,,SKC,0.00,VWS V14.01,2013-12-19 05:56:00,